Das Wetter in  D-61279 Heinzenberg / Taunus





Wetter Minimum- & Maximum-Werte im März 2017

Standort: Heinzenberg / Taunus - Höhe 297 m         8° 24' 1" Ost 50° 21' 51" Nord
(   3-stündige Aktualisierung    letzte Aktualisierung um 20:46 am 31.03.2017  )


Messgrösse

Minimum

Maximum

Durchschnitt

Temperatur West /
Luftfeuchte West
Anklicken für Monats-Diagramm

-2,0 °C

05:48
13.03.2017

27 %

17:05
27.03.2017

23,0 °C

15:24
31.03.2017

93 %

22:18
08.03.2017

Temp

8,1 °C

Feuchte

71 %

Temperatur Ost /
Luftfeuchte Ost
Anklicken für Monats-Diagramm

-1,5 °C

07:02
12.03.2017

--

--
--

23,0 °C

15:24
31.03.2017

--

--
--

8,3 °C

--

Luftdruck Anklicken für Monats-Diagramm

989,2 hPa

15:44
04.03.2017

1032,2 hPa

07:29
14.03.2017

1016,0 hPa

Taupunkt

-5,6 °C

05:43
13.03.2017

11,4 °C

13:34
09.03.2017

2,6 °C

Windchill
( gefühlte Temperatur )

-12,4 °C

07:17
02.03.2017

22,7 °C

13:33
30.03.2017

5,4 °C

Windgeschwindigkeit /
Windrichtung
Anklicken für Monats-Diagramm

---

71,0 km/h / W-SW

02:00
05.03.2017

9,1 km/h
W

Helligkeit /
Sonnenschein
Anklicken für Monats-Diagramm
Anklicken für Monats-Diagramm

Sonnenschein:

160:36 Stunden

Max: 11:20 Std am
27.03.2017

114,0 klux

13:08
20.03.2017

30 klux

Solarstrahlung Anklicken für Monats-Diagramm

---

780 W/m²

13:08
20.03.2017

222 W/m²

Regenmenge
    März 2017
Anklicken für Monats-Diagramm

Insgesamt 58,2 l/m²

in 86:12 Stunden
an 12 Tagen

12,5 l/m²

13:13
08.03.2017

Gesamtmenge

58,2 l/m²

Regen-Tage
    März 2017
Anklicken für Monats-Diagramm

>   0 mm/Tag

>   2 mm/Tag

>   5 mm/Tag

> 10 mm/Tag

> 20 mm/Tag

12 Tage     
9 Tage     
4 Tage     
2 Tage     
0 Tage     

Eisige Tage März 2017 / 2016

Tmin ≤ -10°C     

0 Tage

/

0 Tage

Eistage März 2017 / 2016

Tmax <     0°C     

0 Tage

/

0 Tage

Frosttage März 2017 / 2016

Tmin ≤     0°C     

9 Tage

/

15 Tage

Kalte Tage März 2017 / 2016

Tmax <   10°C     

7 Tage

/

22 Tage

Warme Tage März 2017 / 2016

Tmax ≥   20°C     

5 Tage

/

0 Tage

Sommertage März 2017 / 2016

Tmax ≥   25°C     

0 Tage

/

0 Tage

Heisse Tage März 2017 / 2016

Tmax ≥   30°C     

0 Tage

/

0 Tage


Monatsdiagramm März 2017

Die Kurven zeigen den Durchschnittswert des jeweiligen Tages an


Wetter-Monatsübersicht März 2017
Datum
  Temperatur
   Luftdruck
   Wind
  Regen
   Luftfeuchte
   Helligkeit

Sonnen-
schein

Ø
Temp.

Min.
Temp.

Max.
Temp.

Ø
Luftdruck

Min.
Luftdruck

Max.
Luftdruck

Ø-Geschw.
Haupt-Richtg.

Max.
Wind

Menge /
Dauer

Ø
Feuchte

Min.
Feuchte

Max.
Feuchte

Ø
Helligkeit

Max.
Helligkeit

1.
März
4,8 °C2,2 °C
00:01
7,9 °C
13:41
1000,9 hPa997,0 hPa
01:26
1004,0 hPa
19:01
23,3 km/h
W-SW
52,8 km/h
09:41  
4,4 l/m²
10:10 Stunden
82 %67 %
13:46
88 %
22:52
14,0 klux65,8 klux
13:21
50 Min 
2.
März
6,9 °C3,9 °C
06:42
9,8 °C
15:22
1008,2 hPa999,7 hPa
02:02
1016,5 hPa
23:58
29,8 km/h
W
63,8 km/h
07:17  
0,3 l/m²
1:45 Stunden
65 %48 %
15:17
90 %
00:52
22,7 klux88,2 klux
13:42
2:35 Std 
3.
März
6,1 °C-0,2 °C
06:23
11,7 °C
14:33
1008,8 hPa1000,6 hPa
22:34
1016,7 hPa
02:48
5,5 km/h
SO
23,8 km/h
22:44  
---
63 %48 %
14:13
80 %
08:13
26,4 klux59,5 klux
12:53
5:50 Std 
4.
März
11,1 °C5,4 °C
01:44
16,4 °C
11:59
994,4 hPa989,2 hPa
15:44
1000,7 hPa
00:19
5,6 km/h
SW
46,8 km/h
19:04  
1,8 l/m²
2:10 Stunden
61 %50 %
16:09
82 %
22:35
27,3 klux78,1 klux
11:34
4:20 Std 
5.
März
6,0 °C3,2 °C
23:31
10,2 °C
14:05
999,8 hPa996,6 hPa
00:00
1003,0 hPa
08:00
13,4 km/h
W-SW
71,0 km/h
02:00  
7,3 l/m²
9:51 Stunden
79 %62 %
17:10
87 %
03:10
23,1 klux104,0 klux
13:15
2:40 Std 
6.
März
4,4 °C3,5 °C
00:01
7,3 °C
12:56
1000,6 hPa998,6 hPa
12:56
1005,2 hPa
23:57
11,2 km/h
W-SW
32,4 km/h
15:31  
8,1 l/m²
11:25 Stunden
87 %80 %
13:01
90 %
23:02
16 klux71 klux
14:51
1:45 Std 
7.
März
4,5 °C3,1 °C
08:22
8,0 °C
13:47
1013,1 hPa1005,2 hPa
00:02
1020,8 hPa
23:58
8,2 km/h
W
31,5 km/h
14:12  
3,3 l/m²
5:30 Stunden
88 %76 %
13:57
92 %
09:02
19,2 klux84,7 klux
13:37
1:35 Std 
8.
März
3,4 °C-0,6 °C
05:33
8,0 °C
23:29
1018,1 hPa1013,2 hPa
21:08
1021,4 hPa
05:33
6,7 km/h
SW
24,5 km/h
13:18  
12,5 l/m²
11:11 Stunden
88 %81 %
12:23
93 %
22:18
8,5 klux31,0 klux
12:08
--- 
9.
März
8,4 °C4,5 °C
04:44
14,5 °C
13:39
1017,6 hPa1015,1 hPa
00:04
1022,5 hPa
23:45
11,8 km/h
W-NW
41,7 km/h
15:54  
2,6 l/m²
2:55 Stunden
87 %73 %
16:24
93 %
00:04
24,6 klux97,3 klux
12:39
3:10 Std 
10.
März
6,5 °C1,2 °C
23:46
12,6 °C
15:40
1026,0 hPa1022,5 hPa
00:00
1027,9 hPa
09:00
5,7 km/h
W-NW
22,1 km/h
05:00  
---
70 %53 %
15:40
81 %
04:20
34,2 klux96,1 klux
11:30
5:45 Std 
11.
März
5,4 °C-1,4 °C
05:36
14,5 °C
15:56
1022,2 hPa1018,4 hPa
15:56
1027,4 hPa
01:56
1,8 km/h
O-SO
19,8 km/h
14:56  
---
67 %40 %
16:06
86 %
07:36
38,9 klux74,9 klux
11:26
7:50 Std 
12.
März
5,6 °C-1,9 °C
07:02
15,7 °C
15:37
1017,0 hPa1013,1 hPa
15:42
1020,0 hPa
00:42
3,8 km/h
O-SO
30,3 km/h
11:17  
---
63 %40 %
15:42
83 %
08:47
41,7 klux76,7 klux
12:02
10:10 Std 
13.
März
5,9 °C-2,0 °C
05:48
16,3 °C
14:13
1024,0 hPa1019,1 hPa
00:03
1030,2 hPa
23:54
1,2 km/h
NW
16,8 km/h
14:33  
---
64 %40 %
15:18
80 %
08:13
38,0 klux76,2 klux
13:13
8:00 Std 
14.
März
7,9 °C2,0 °C
03:59
16,1 °C
15:29
1030,5 hPa1028,5 hPa
14:59
1032,2 hPa
07:29
4,1 km/h
W-NW
20,3 km/h
13:14  
---
69 %50 %
16:09
84 %
07:14
40,1 klux76,1 klux
12:24
8:00 Std 
15.
März
9,7 °C3,5 °C
23:50
15,7 °C
15:19
1030,2 hPa1028,6 hPa
15:39
1031,6 hPa
07:49
4,6 km/h
W
20,0 km/h
23:05  
---
73 %55 %
15:44
85 %
08:54
29,6 klux84,6 klux
13:59
5:35 Std 
16.
März
8,8 °C-0,5 °C
07:30
20,7 °C
16:15
1023,7 hPa1017,3 hPa
23:00
1030,2 hPa
00:20
0,8 km/h
W-NW
12,0 km/h
13:15  
---
65 %37 %
16:25
86 %
08:35
43,3 klux76,5 klux
12:20
10:25 Std 
17.
März
6,8 °C1,9 °C
07:05
11,4 °C
11:45
1014,4 hPa1009,9 hPa
23:56
1017,5 hPa
00:30
9,0 km/h
NW
32,9 km/h
13:30  
---
71 %64 %
15:20
79 %
07:40
16,4 klux94,3 klux
11:40
40 Min 
18.
März
7,5 °C4,4 °C
04:31
9,7 °C
18:06
1007,2 hPa1005,1 hPa
06:21
1009,9 hPa
00:01
25,5 km/h
W
57,6 km/h
01:16  
10,3 l/m²
18:00 Stunden
86 %56 %
00:36
92 %
21:31
12,2 klux32,0 klux
12:46
--- 
19.
März
10,6 °C7,9 °C
01:07
15,0 °C
15:22
1008,8 hPa1006,9 hPa
15:22
1009,9 hPa
01:07
22,4 km/h
W
48,5 km/h
14:17  
4,3 l/m²
6:25 Stunden
82 %67 %
20:32
93 %
04:47
19,7 klux85,2 klux
12:22
1:00 Std 
20.
März
10,2 °C8,4 °C
07:13
14,2 °C
13:13
1008,7 hPa1007,3 hPa
15:28
1010,9 hPa
07:13
21,1 km/h
W
41,7 km/h
17:58  
---
20 Minuten
71 %59 %
13:13
80 %
07:08
19,1 klux114,0 klux
13:08
1:00 Std 
21.
März
7,8 °C4,2 °C
23:50
10,6 °C
14:04
1009,3 hPa1006,6 hPa
03:54
1014,5 hPa
23:50
13,0 km/h
W-SW
36,0 km/h
14:19  
3,3 l/m²
6:30 Stunden
81 %69 %
00:04
89 %
10:14
16 klux49 klux
10:09
10 Min 
22.
März
4,8 °C-0,2 °C
05:55
8,5 °C
13:35
1014,0 hPa1012,9 hPa
13:35
1015,1 hPa
05:55
1,8 km/h
O-SO
16,5 km/h
12:10  
---
81 %69 %
14:00
90 %
06:30
16,7 klux54,3 klux
10:35
20 Min 
23.
März
8,6 °C2,8 °C
06:31
16,8 °C
14:41
1015,1 hPa1013,2 hPa
00:06
1020,5 hPa
23:57
2,9 km/h
SO
20,2 km/h
13:21  
---
75 %50 %
15:21
89 %
08:21
41,1 klux87,2 klux
11:46
5:55 Std 
24.
März
8,9 °C4,8 °C
23:58
16,0 °C
15:17
1025,7 hPa1020,5 hPa
00:02
1030,0 hPa
23:58
4,0 km/h
NO
21,6 km/h
15:02  
---
70 %52 %
15:52
82 %
00:47
33,8 klux87,2 klux
13:02
6:20 Std 
25.
März
8,5 °C-0,6 °C
04:53
18,5 °C
16:18
1026,0 hPa1021,1 hPa
16:53
1030,5 hPa
02:48
3,7 km/h
NO
28,5 km/h
12:58  
---
60 %34 %
16:13
85 %
08:13
45,4 klux82,3 klux
11:43
10:10 Std 
26.
März
9,6 °C1,9 °C
08:09
19,0 °C
16:29
1022,6 hPa1020,1 hPa
17:59
1024,8 hPa
23:55
1,1 km/h
O-NO
21,0 km/h
11:49  
---
54 %37 %
16:29
70 %
09:24
46,2 klux81,7 klux
13:29
10:50 Std 
27.
März
8,9 °C-1,0 °C
07:40
20,1 °C
17:50
1023,3 hPa1019,8 hPa
17:50
1026,5 hPa
08:45
5,4 km/h
SO
28,6 km/h
12:35  
---
54 %27 %
17:05
80 %
09:15
48,8 klux82,3 klux
13:45
11:20 Std 
28.
März
11,4 °C0,7 °C
07:21
22,1 °C
17:06
1021,2 hPa1018,5 hPa
17:06
1023,3 hPa
07:56
9,2 km/h
W
34,6 km/h
16:11  
---
55 %36 %
16:16
72 %
08:51
46,3 klux82,5 klux
14:36
10:30 Std 
29.
März
12,8 °C6,5 °C
07:42
18,6 °C
15:37
1024,1 hPa1022,4 hPa
18:07
1025,8 hPa
22:48
12,1 km/h
W-NW
37,2 km/h
13:22  
---
63 %49 %
14:27
78 %
08:17
37,6 klux104,0 klux
14:07
6:10 Std 
30.
März
14,9 °C9,2 °C
08:03
22,7 °C
13:33
1024,2 hPa1020,8 hPa
18:43
1026,3 hPa
08:03
1,9 km/h
O-SO
20,3 km/h
15:08  
---
61 %44 %
16:18
78 %
09:22
41 klux96 klux
13:23
7:56 Std 
31.
März
13,8 °C4,7 °C
07:14
23,0 °C
15:24
1015,6 hPa1011,4 hPa
18:14
1022,2 hPa
00:34
10,4 km/h
W-SW
51,9 km/h
13:29  
---
56 %29 %
15:24
85 %
09:09
43,7 klux91,1 klux
12:44
9:45 Std 



März
2017

Temperatur

  

Luftdruck

  

Wind

  

Regen

  

Luftfeuchte

  

Helligkeit

Sonnen-
schein

Ø

Min

Max

Ø

Min

Max

Ø

Max

Max

Ø

Min

Max

Ø

Max

Max

8,1 °C

-2,0 °C

05:48 Uhr
13.03.2017

23,0 °C

15:24 Uhr
31.03.2017

1016,0 hPa

989,2 hPa

15:44 Uhr
04.03.2017

1032,2 hPa

07:29 Uhr
14.03.2017

9,1 km/h

W

71,0 km/h

02:00 Uhr
05.03.2017

12,5 l/m²

11:11 Stunden
08.03.2017

71 %

27 %

17:05 Uhr
27.03.2017

93 %

22:18 Uhr
08.03.2017

30,0 klux

114,0 klux

13:08 Uhr
20.03.2017

11:20 Std

am
27.03.2017

Gesamt

Gesamt

58,2 l/m²

12 Tage
86:12 h

160:36 Std


Wetter-Diagramme März 2017     Heinzenberg / Taunus   
TemperaturLuftfeuchte
SolarstrahlungLuftdruck
HelligkeitSonnenschein
RegenmengeRegendauer
Wind-GeschwindigkeitWind-Richtung